TELKOM 3S

Last updated on Sun Apr 12 2026 00:02:54 GMT+0000 (Coordinated Universal Time)

1 41944U 17007A 26101.49697406 -.00000361 00000+0 00000+0 0 9991 2 41944 0.0153 214.9205 0002406 177.9314 103.7822 1.00272031 33476
UTC large
Height (km)
Speed (km/s)
/
Latitude / Longitude
Inclination (degrees)
Orbital Period (minutes)
Azimuth
Elevation
Range (km)
Doppler Factor

Next 0 passes for location: London (51.5072 / 0.1276)

Sorry there are no passes over London.
TELKOM 3S